Time,TemperatureF,DewpointF,PressureIn,WindDirection,WindDirectionDegrees,WindSpeedMPH,WindSpeedGustMPH,Humidity,HourlyPrecipIn,Conditions,Clouds,dailyrainin,SoftwareType,DateUTC
2013-01-07 00:03:00,19.0,19.0,30.05,NE,40,7.0,-999.0,100,-99.99,,,-99.99,,2013-01-07 05:03:00,
2013-01-07 00:12:00,19.0,19.0,30.05,NE,50,7.0,-999.0,100,-99.99,,,-99.99,,2013-01-07 05:12:00,
2013-01-07 00:22:00,19.0,19.0,30.06,NNE,30,6.0,-999.0,100,-99.99,,,-99.99,,2013-01-07 05:22:00,
2013-01-07 00:33:00,19.0,19.0,30.07,NE,40,6.0,-999.0,100,-99.99,,,-99.99,,2013-01-07 05:33:00,
2013-01-07 00:42:00,19.0,19.0,30.07,NE,50,6.0,-999.0,100,-99.99,,,-99.99,,2013-01-07 05:42:00,
2013-01-07 00:52:00,19.0,19.0,30.07,NE,50,5.0,-999.0,100,-99.99,,,-99.99,,2013-01-07 05:52:00,
2013-01-07 01:02:00,19.0,19.0,30.07,NE,50,5.0,-999.0,100,-99.99,,,-99.99,,2013-01-07 06:02:00,
2013-01-07 01:12:00,19.0,19.0,30.09,NNE,30,5.0,-999.0,100,-99.99,,,-99.99,,2013-01-07 06:12:00,
2013-01-07 01:22:00,19.0,19.0,30.10,NNE,30,5.0,-999.0,100,-99.99,,,-99.99,,2013-01-07 06:22:00,
2013-01-07 01:32:00,19.0,19.0,30.11,NE,40,3.0,-999.0,100,-99.99,,,-99.99,,2013-01-07 06:32:00,
2013-01-07 01:42:00,19.0,19.0,30.11,NNE,20,5.0,-999.0,100,-99.99,,,-99.99,,2013-01-07 06:42:00,
2013-01-07 01:52:00,19.0,19.0,30.13,NNE,20,3.0,-999.0,100,-99.99,,,-99.99,,2013-01-07 06:52:00,
2013-01-07 02:02:00,19.0,19.0,30.13,NNE,20,3.0,-999.0,100,-99.99,,,-99.99,,2013-01-07 07:02:00,
2013-01-07 02:12:00,19.0,19.0,30.15,North,0,0.0,-999.0,100,-99.99,,,-99.99,,2013-01-07 07:12:00,
2013-01-07 02:22:00,19.0,19.0,30.15,North,0,0.0,-999.0,100,-99.99,,,-99.99,,2013-01-07 07:22:00,
2013-01-07 02:33:00,19.0,19.0,30.16,North,0,0.0,-999.0,100,-99.99,,,-99.99,,2013-01-07 07:33:00,
2013-01-07 02:42:00,19.0,19.0,30.16,North,0,0.0,-999.0,100,-99.99,,,-99.99,,2013-01-07 07:42:00,
2013-01-07 02:52:00,19.0,19.0,30.16,North,0,0.0,-999.0,100,-99.99,,,-99.99,,2013-01-07 07:52:00,
2013-01-07 03:03:00,19.0,19.0,30.16,North,0,0.0,-999.0,100,-99.99,,,-99.99,,2013-01-07 08:03:00,
2013-01-07 03:12:00,19.0,19.0,30.17,North,0,0.0,-999.0,100,-99.99,,,-99.99,,2013-01-07 08:12:00,
2013-01-07 03:22:00,19.0,19.0,30.18,North,0,0.0,-999.0,100,-99.99,,,-99.99,,2013-01-07 08:22:00,
2013-01-07 03:32:00,19.0,19.0,30.18,North,0,0.0,-999.0,100,-99.99,,,-99.99,,2013-01-07 08:32:00,
2013-01-07 03:42:00,19.0,19.0,30.19,North,0,0.0,-999.0,100,-99.99,,,-99.99,,2013-01-07 08:42:00,
2013-01-07 03:52:00,19.0,19.0,30.20,North,0,0.0,-999.0,100,-99.99,,,-99.99,,2013-01-07 08:52:00,
2013-01-07 04:02:00,19.0,19.0,30.20,North,0,0.0,-999.0,100,-99.99,,,-99.99,,2013-01-07 09:02:00,
2013-01-07 04:12:00,19.0,19.0,30.21,NNW,340,6.0,-999.0,100,-99.99,,,-99.99,,2013-01-07 09:12:00,
2013-01-07 04:22:00,19.0,18.0,30.21,North,350,6.0,-999.0,92,-99.99,,,-99.99,,2013-01-07 09:22:00,
2013-01-07 04:32:00,18.0,18.0,30.21,NNW,340,6.0,-999.0,100,-99.99,,,-99.99,,2013-01-07 09:32:00,
2013-01-07 04:42:00,18.0,18.0,30.21,NNW,340,5.0,-999.0,100,-99.99,,,-99.99,,2013-01-07 09:42:00,
2013-01-07 04:52:00,18.0,16.0,30.22,NNW,330,7.0,-999.0,92,-99.99,,,-99.99,,2013-01-07 09:52:00,
2013-01-07 05:02:00,18.0,16.0,30.22,NNW,330,7.0,-999.0,92,-99.99,,,-99.99,,2013-01-07 10:02:00,
2013-01-07 05:12:00,18.0,16.0,30.23,NNW,330,6.0,-999.0,92,-99.99,,,-99.99,,2013-01-07 10:12:00,
2013-01-07 05:22:00,18.0,16.0,30.24,NNW,330,3.0,-999.0,92,-99.99,,,-99.99,,2013-01-07 10:22:00,
2013-01-07 05:32:00,18.0,16.0,30.25,NW,320,7.0,-999.0,92,-99.99,,,-99.99,,2013-01-07 10:32:00,
2013-01-07 05:42:00,18.0,16.0,30.25,NNW,330,6.0,-999.0,92,-99.99,,,-99.99,,2013-01-07 10:42:00,
2013-01-07 05:52:00,16.0,16.0,30.26,NNW,340,3.0,-999.0,100,-99.99,,,-99.99,,2013-01-07 10:52:00,
2013-01-07 06:02:00,16.0,16.0,30.26,NNW,340,3.0,-999.0,100,-99.99,,,-99.99,,2013-01-07 11:02:00,
2013-01-07 06:12:00,16.0,16.0,30.27,NNW,330,6.0,-999.0,100,-99.99,,,-99.99,,2013-01-07 11:12:00,
2013-01-07 06:23:00,16.0,14.0,30.28,NW,320,6.0,-999.0,92,-99.99,,,-99.99,,2013-01-07 11:23:00,
2013-01-07 06:33:00,14.0,12.0,30.29,NW,320,8.0,-999.0,92,-99.99,,,-99.99,,2013-01-07 11:33:00,
2013-01-07 06:43:00,14.0,12.0,30.29,NW,320,6.0,-999.0,92,-99.99,,,-99.99,,2013-01-07 11:43:00,
2013-01-07 06:53:00,12.0,10.0,30.29,NW,310,6.0,-999.0,92,-99.99,,,-99.99,,2013-01-07 11:53:00,
2013-01-07 07:03:00,12.0,10.0,30.29,NW,310,6.0,-999.0,92,-99.99,,,-99.99,,2013-01-07 12:03:00,
2013-01-07 07:12:00,12.0,10.0,30.31,NNW,330,5.0,-999.0,92,-99.99,,,-99.99,,2013-01-07 12:12:00,
2013-01-07 07:22:00,12.0,10.0,30.32,NNW,340,5.0,-999.0,92,-99.99,,,-99.99,,2013-01-07 12:22:00,
2013-01-07 07:33:00,12.0,10.0,30.32,NNW,330,5.0,-999.0,92,-99.99,,,-99.99,,2013-01-07 12:33:00,
2013-01-07 07:43:00,12.0,10.0,30.33,NNW,330,5.0,-999.0,92,-99.99,,,-99.99,,2013-01-07 12:43:00,
2013-01-07 07:52:00,12.0,10.0,30.34,NNW,330,5.0,-999.0,92,-99.99,,,-99.99,,2013-01-07 12:52:00,
2013-01-07 08:03:00,12.0,10.0,30.34,NNW,330,5.0,-999.0,92,-99.99,,,-99.99,,2013-01-07 13:03:00,
2013-01-07 08:12:00,10.0,9.0,30.34,WNW,300,5.0,-999.0,92,-99.99,,,-99.99,,2013-01-07 13:12:00,
2013-01-07 08:23:00,10.0,9.0,30.35,WNW,300,3.0,-999.0,92,-99.99,,,-99.99,,2013-01-07 13:23:00,
2013-01-07 08:33:00,10.0,9.0,30.36,NW,310,5.0,-999.0,92,-99.99,,,-99.99,,2013-01-07 13:33:00,
2013-01-07 08:42:00,10.0,9.0,30.36,WNW,290,5.0,-999.0,92,-99.99,,,-99.99,,2013-01-07 13:42:00,
2013-01-07 08:52:00,10.0,9.0,30.36,West,280,5.0,-999.0,92,-99.99,,,-99.99,,2013-01-07 13:52:00,
2013-01-07 09:03:00,10.0,9.0,30.36,West,280,5.0,-999.0,92,-99.99,,,-99.99,,2013-01-07 14:03:00,
2013-01-07 09:12:00,10.0,9.0,30.36,WNW,290,3.0,-999.0,92,-99.99,,,-99.99,,2013-01-07 14:12:00,
2013-01-07 09:22:00,10.0,9.0,30.37,WNW,290,3.0,-999.0,92,-99.99,,,-99.99,,2013-01-07 14:22:00,
2013-01-07 09:33:00,10.0,9.0,30.37,North,0,0.0,-999.0,92,-99.99,,,-99.99,,2013-01-07 14:33:00,
2013-01-07 09:42:00,10.0,9.0,30.37,North,0,0.0,-999.0,92,-99.99,,,-99.99,,2013-01-07 14:42:00,
2013-01-07 09:53:00,10.0,9.0,30.38,WNW,290,3.0,-999.0,92,-99.99,,,-99.99,,2013-01-07 14:53:00,
2013-01-07 10:03:00,10.0,9.0,30.38,WNW,290,3.0,-999.0,92,-99.99,,,-99.99,,2013-01-07 15:03:00,
2013-01-07 10:12:00,10.0,9.0,30.39,NW,310,3.0,-999.0,92,-99.99,,,-99.99,,2013-01-07 15:12:00,
2013-01-07 10:22:00,10.0,9.0,30.39,North,0,0.0,-999.0,92,-99.99,,,-99.99,,2013-01-07 15:22:00,
2013-01-07 10:33:00,12.0,9.0,30.39,North,0,0.0,-999.0,85,-99.99,,,-99.99,,2013-01-07 15:33:00,
2013-01-07 10:43:00,12.0,9.0,30.40,North,0,0.0,-999.0,85,-99.99,,,-99.99,,2013-01-07 15:43:00,
2013-01-07 10:53:00,12.0,9.0,30.40,WNW,290,3.0,-999.0,85,-99.99,,,-99.99,,2013-01-07 15:53:00,
2013-01-07 11:03:00,12.0,9.0,30.40,WNW,290,3.0,-999.0,85,-99.99,,,-99.99,,2013-01-07 16:03:00,
2013-01-07 11:12:00,12.0,10.0,30.39,North,0,0.0,-999.0,92,-99.99,,,-99.99,,2013-01-07 16:12:00,
2013-01-07 11:22:00,12.0,10.0,30.39,West,270,3.0,-999.0,92,-99.99,,,-99.99,,2013-01-07 16:22:00,
2013-01-07 11:33:00,12.0,10.0,30.38,North,0,0.0,-999.0,92,-99.99,,,-99.99,,2013-01-07 16:33:00,
2013-01-07 11:43:00,12.0,10.0,30.37,North,0,0.0,-999.0,92,-99.99,,,-99.99,,2013-01-07 16:43:00,
2013-01-07 11:53:00,14.0,10.0,30.37,West,270,3.0,-999.0,85,-99.99,,,-99.99,,2013-01-07 16:53:00,
2013-01-07 12:03:00,14.0,10.0,30.37,West,270,3.0,-999.0,85,-99.99,,,-99.99,,2013-01-07 17:03:00,
2013-01-07 12:12:00,14.0,12.0,30.36,West,270,3.0,-999.0,92,-99.99,,,-99.99,,2013-01-07 17:12:00,
2013-01-07 12:23:00,16.0,12.0,30.34,North,0,0.0,-999.0,85,-99.99,,,-99.99,,2013-01-07 17:23:00,
2013-01-07 12:33:00,16.0,12.0,30.35,West,270,3.0,-999.0,85,-99.99,,,-99.99,,2013-01-07 17:33:00,
2013-01-07 12:42:00,16.0,12.0,30.35,West,280,3.0,-999.0,85,-99.99,,,-99.99,,2013-01-07 17:42:00,
2013-01-07 12:53:00,16.0,14.0,30.35,West,270,3.0,-999.0,92,-99.99,,,-99.99,,2013-01-07 17:53:00,
2013-01-07 13:03:00,16.0,14.0,30.35,West,270,3.0,-999.0,92,-99.99,,,-99.99,,2013-01-07 18:03:00,
2013-01-07 13:12:00,18.0,16.0,30.34,West,270,5.0,-999.0,92,-99.99,,,-99.99,,2013-01-07 18:12:00,
2013-01-07 13:23:00,18.0,16.0,30.34,West,260,6.0,-999.0,92,-99.99,,,-99.99,,2013-01-07 18:23:00,
2013-01-07 13:33:00,18.0,16.0,30.34,West,270,6.0,-999.0,92,-99.99,,,-99.99,,2013-01-07 18:33:00,
2013-01-07 13:42:00,18.0,16.0,30.34,West,270,6.0,-999.0,92,-99.99,,,-99.99,,2013-01-07 18:42:00,
2013-01-07 13:52:00,18.0,18.0,30.34,West,260,6.0,-999.0,100,-99.99,,,-99.99,,2013-01-07 18:52:00,
2013-01-07 14:03:00,18.0,18.0,30.34,West,260,6.0,-999.0,100,-99.99,,,-99.99,,2013-01-07 19:03:00,
2013-01-07 14:12:00,19.0,18.0,30.34,WSW,250,7.0,-999.0,92,-99.99,,,-99.99,,2013-01-07 19:12:00,
2013-01-07 14:23:00,19.0,18.0,30.34,WSW,240,7.0,-999.0,92,-99.99,,,-99.99,,2013-01-07 19:23:00,
2013-01-07 14:33:00,19.0,18.0,30.33,WSW,240,7.0,-999.0,92,-99.99,,,-99.99,,2013-01-07 19:33:00,
2013-01-07 14:43:00,19.0,18.0,30.33,WSW,250,6.0,-999.0,92,-99.99,,,-99.99,,2013-01-07 19:43:00,
2013-01-07 14:52:00,19.0,18.0,30.33,WSW,250,6.0,-999.0,92,-99.99,,,-99.99,,2013-01-07 19:52:00,
2013-01-07 15:03:00,19.0,18.0,30.33,WSW,250,6.0,-999.0,92,-99.99,,,-99.99,,2013-01-07 20:03:00,
2013-01-07 15:12:00,19.0,19.0,30.33,WSW,240,5.0,-999.0,100,-99.99,,,-99.99,,2013-01-07 20:12:00,
2013-01-07 15:23:00,21.0,19.0,30.32,SW,230,10.0,-999.0,92,-99.99,,,-99.99,,2013-01-07 20:23:00,
2013-01-07 15:33:00,21.0,19.0,30.33,SW,230,9.0,-999.0,92,-99.99,,,-99.99,,2013-01-07 20:33:00,
2013-01-07 15:42:00,21.0,19.0,30.33,SW,230,10.0,-999.0,92,-99.99,,,-99.99,,2013-01-07 20:42:00,
2013-01-07 15:52:00,21.0,19.0,30.32,SW,220,10.0,-999.0,92,-99.99,,,-99.99,,2013-01-07 20:52:00,
2013-01-07 16:03:00,21.0,19.0,30.32,SW,220,10.0,-999.0,92,-99.99,,,-99.99,,2013-01-07 21:03:00,
2013-01-07 16:12:00,23.0,19.0,30.33,WSW,240,10.0,-999.0,85,-99.99,,,-99.99,,2013-01-07 21:12:00,
2013-01-07 16:23:00,21.0,19.0,30.32,West,260,10.0,-999.0,92,-99.99,,,-99.99,,2013-01-07 21:23:00,
2013-01-07 16:33:00,21.0,19.0,30.32,West,260,10.0,-999.0,92,-99.99,,,-99.99,,2013-01-07 21:33:00,
2013-01-07 16:43:00,21.0,19.0,30.32,WSW,250,10.0,-999.0,92,-99.99,,,-99.99,,2013-01-07 21:43:00,
2013-01-07 16:52:00,21.0,19.0,30.32,WSW,240,8.0,-999.0,92,-99.99,,,-99.99,,2013-01-07 21:52:00,
2013-01-07 17:03:00,21.0,19.0,30.32,WSW,240,8.0,-999.0,92,-99.99,,,-99.99,,2013-01-07 22:03:00,
2013-01-07 17:12:00,21.0,19.0,30.32,SW,230,7.0,-999.0,92,-99.99,,,-99.99,,2013-01-07 22:12:00,
2013-01-07 17:23:00,21.0,21.0,30.31,SSW,210,7.0,-999.0,100,-99.99,,,-99.99,,2013-01-07 22:23:00,
2013-01-07 17:33:00,23.0,21.0,30.30,South,190,8.0,-999.0,92,-99.99,,,-99.99,,2013-01-07 22:33:00,
2013-01-07 17:42:00,23.0,21.0,30.29,South,190,8.0,-999.0,92,-99.99,,,-99.99,,2013-01-07 22:42:00,
2013-01-07 17:53:00,23.0,21.0,30.28,SSW,200,9.0,-999.0,92,-99.99,,,-99.99,,2013-01-07 22:53:00,
2013-01-07 18:02:00,23.0,21.0,30.28,SSW,200,9.0,-999.0,92,-99.99,,,-99.99,,2013-01-07 23:02:00,
2013-01-07 18:12:00,25.0,21.0,30.27,SSW,210,10.0,-999.0,85,-99.99,,,-99.99,,2013-01-07 23:12:00,
2013-01-07 18:22:00,25.0,21.0,30.27,SSW,210,8.0,-999.0,85,-99.99,,,-99.99,,2013-01-07 23:22:00,
2013-01-07 18:33:00,25.0,21.0,30.27,SSW,200,10.0,-999.0,85,-99.99,,,-99.99,,2013-01-07 23:33:00,
2013-01-07 18:43:00,25.0,21.0,30.26,SSW,200,13.0,17.0,85,-99.99,,,-99.99,,2013-01-07 23:43:00,
2013-01-07 18:53:00,25.0,21.0,30.26,SSW,210,15.0,23.0,85,-99.99,,,-99.99,,2013-01-07 23:53:00,
2013-01-07 19:03:00,25.0,21.0,30.26,SSW,210,15.0,23.0,85,-99.99,,,-99.99,,2013-01-08 00:03:00,
2013-01-07 19:12:00,25.0,21.0,30.26,SSW,200,15.0,21.0,85,-99.99,,,-99.99,,2013-01-08 00:12:00,
2013-01-07 19:22:00,25.0,21.0,30.25,SSW,210,14.0,18.0,85,-99.99,,,-99.99,,2013-01-08 00:22:00,
2013-01-07 19:33:00,25.0,21.0,30.25,SSW,210,14.0,22.0,85,-99.99,,,-99.99,,2013-01-08 00:33:00,
2013-01-07 19:42:00,25.0,21.0,30.25,SSW,210,14.0,21.0,85,-99.99,,,-99.99,,2013-01-08 00:42:00,
2013-01-07 19:52:00,25.0,21.0,30.24,SSW,200,10.0,20.0,85,-99.99,,,-99.99,,2013-01-08 00:52:00,
2013-01-07 20:03:00,25.0,21.0,30.24,SSW,200,10.0,20.0,85,-99.99,,,-99.99,,2013-01-08 01:03:00,
2013-01-07 20:12:00,25.0,21.0,30.23,SSW,200,12.0,18.0,85,-99.99,,,-99.99,,2013-01-08 01:12:00,
2013-01-07 20:22:00,27.0,21.0,30.22,SSW,200,10.0,-999.0,79,-99.99,,,-99.99,,2013-01-08 01:22:00,
2013-01-07 20:33:00,27.0,23.0,30.21,SSW,200,10.0,-999.0,86,-99.99,,,-99.99,,2013-01-08 01:33:00,
2013-01-07 20:42:00,27.0,23.0,30.21,SSW,200,10.0,-999.0,86,-99.99,,,-99.99,,2013-01-08 01:42:00,
2013-01-07 20:52:00,27.0,23.0,30.20,SW,220,12.0,-999.0,86,-99.99,,,-99.99,,2013-01-08 01:52:00,
2013-01-07 21:02:00,27.0,23.0,30.20,SW,220,12.0,-999.0,86,-99.99,,,-99.99,,2013-01-08 02:02:00,
2013-01-07 21:12:00,27.0,23.0,30.19,SSW,210,10.0,16.0,86,-99.99,,,-99.99,,2013-01-08 02:12:00,
2013-01-07 21:22:00,27.0,23.0,30.19,SSW,210,9.0,-999.0,86,-99.99,,,-99.99,,2013-01-08 02:22:00,
2013-01-07 21:33:00,27.0,23.0,30.19,SSW,210,12.0,16.0,86,-99.99,,,-99.99,,2013-01-08 02:33:00,
2013-01-07 21:42:00,27.0,23.0,30.18,SSW,210,10.0,16.0,86,-99.99,,,-99.99,,2013-01-08 02:42:00,
2013-01-07 21:53:00,27.0,23.0,30.18,SSW,210,12.0,17.0,86,-99.99,,,-99.99,,2013-01-08 02:53:00,
2013-01-07 22:03:00,27.0,23.0,30.18,SSW,210,12.0,17.0,86,-99.99,,,-99.99,,2013-01-08 03:03:00,
2013-01-07 22:12:00,27.0,23.0,30.18,SSW,200,10.0,17.0,86,-99.99,,,-99.99,,2013-01-08 03:12:00,
2013-01-07 22:22:00,27.0,23.0,30.17,SSW,210,13.0,18.0,86,-99.99,,,-99.99,,2013-01-08 03:22:00,
2013-01-07 22:32:00,27.0,23.0,30.16,SSW,210,10.0,17.0,86,-99.99,,,-99.99,,2013-01-08 03:32:00,
2013-01-07 22:43:00,27.0,23.0,30.16,SSW,200,13.0,20.0,86,-99.99,,,-99.99,,2013-01-08 03:43:00,
2013-01-07 22:52:00,27.0,23.0,30.16,SW,220,10.0,20.0,86,-99.99,,,-99.99,,2013-01-08 03:52:00,
2013-01-07 23:02:00,27.0,23.0,30.16,SW,220,10.0,20.0,86,-99.99,,,-99.99,,2013-01-08 04:02:00,
2013-01-07 23:12:00,27.0,23.0,30.15,SSW,210,9.0,-999.0,86,-99.99,,,-99.99,,2013-01-08 04:12:00,
2013-01-07 23:22:00,27.0,23.0,30.13,SSW,210,10.0,17.0,86,-99.99,,,-99.99,,2013-01-08 04:22:00,
2013-01-07 23:32:00,27.0,25.0,30.13,SW,220,13.0,18.0,92,-99.99,,,-99.99,,2013-01-08 04:32:00,
2013-01-07 23:42:00,27.0,25.0,30.13,SW,220,13.0,20.0,92,-99.99,,,-99.99,,2013-01-08 04:42:00,
2013-01-07 23:52:00,28.0,25.0,30.12,SW,220,14.0,21.0,86,-99.99,,,-99.99,,2013-01-08 04:52:00,